STARLINK-36068, 66845

Orbit data source: Space-Track

STARLINK-36068, 66845 is a payload satellite owned by SpaceX/Seattle (US) in LEO that was launched on Tue, 02 Dec 2025 UTC via an FALCON 9 launch vehicle from the Air Force Western Test Range (AFWTR). Payload-class satellites include a variety of spacecraft equipped with specific instruments for various scientific and technological missions. These include communications satellites like Starlink; space stations such as the ISS; scientific satellites like the Hubble; Earth observation satellites from companies like Planet Labs, Umbra, and HawkEye 360; GPS; miniature CubeSats for education and research; and military/defense satellites.

Loading next visibility...
Identifier
66845, 2025-280AA
Orbit
LEO
Country
Flag of USUS
Related business
Manufacturer
SpaceX/Seattle
Mission
Operational Commercial Communications
Bus & Motor
STARLINK V2MO, Unknown motor
Mass
575 kg wet, ~530 kg dry
Launch date (UTC)
2025-12-02 (7 months ago)
Launch vehicle
FALCON 9
Launch site
Air Force Western Test Range (AFWTR)
Object type
Payload
Rocket body
Debris
Shape & HBR
Box + 2 Pan, 17.7 m
Radar Cross Section
36.964 m², Large (>1 m²)

Expand to show TLE details & history
Last TLE update: 23 hours ago

TLE from 23 hours ago
0 STARLINK-36068
1 66845U 25280AA  26170.92826304  .00004264  00000-0  36485-3 0  9991
2 66845  70.0015  76.5394 0002887 268.1406  91.9422 14.98340872 31399
Epoch: 2026-06-19T22:16Z
TLE epoch observation values (Epoch: 2026-06-19T22:16:41.926Z)
Latitude
-0.00008°
Longitude
-165.78552°
Altitude
574.515 km
Speed
7.574 km/s
True Right ascension
05h 06m 09s
True Declination
0° 00' 00"
Sunlit
Object was in daylight at epoch
Visualization orbit readout
Latitude
Unknown
Longitude
Unknown
Altitude
Unknown
Speed
Unknown
Apparent Right ascension
Unknown
Apparent Declination
Unknown
Sunlit
N/A
Visualization observer readout
Local Sidereal Time
08:32:58
Azimuth
Unknown
Elevation
Unknown
Doppler factor
Unknown
Orbital elements
Apogee altitude
571.976 km
Perigee altitude
567.964 km
Semi-major axis
6,948.107 km
Eccentricity
0.00029
Inclination
70.0015°
RAAN
76.5394°
Arg. of periapsis
268.1406°
True anomaly
91.97526°
Mean anomaly
91.9422°
Eccentric anomaly
91.95873°
Mean motion
3.74752 °/min
Orbital period
96.06 mins
BSTAR
0.00036485
Loading maneuver chart data...
Computing Atmospheric mass density...
Loading historical data...
Loading historical data...
Loading historical data...
Loading historical data...
Loading historical data...
Loading historical data...
Loading historical data...

Documentation

Showing up to 5 results
|